Regional Weather Roundup
Issued by NWS

Home | Current Version | Previous Version | Graphics & Text | Print | Product List | Glossary On
Versions: 1 2 3 4 5 6 7 8 9 10 11 12 13 14 15 16 17 18 19 20 21 22 23 24 25 26 27 28 29 30 31 32 33 34 35 36 37 38 39 40 41 42 43 44 45 46 47 48 49 50
000
ASUS44 KMEG 050500
RWRTN
TENNESSEE HOURLY STATE WEATHER ROUNDUP
NATIONAL WEATHER SERVICE MEMPHIS TN
1100 PM CST WED MAR 04 2015

TNZ002-004-019-021-049-052-054-088>092-050600-
WEST TENNESSEE

CITY           SKY/WX    TMP DP  RH WIND       PRES   REMARKS
MEMPHIS INTL   LGTSLEET  26  22  84 N13G28    30.21R FOG     WCI  15
NWS MEMPHIS      N/A     25 N/A N/A MISG        N/A
JACKSON        CLOUDY    24  21  88 N20       30.20S FOG     WCI  10
DYERSBURG      CLOUDY    21   9  58 N14G26    30.29R WCI   8
UNION CITY     CLOUDY    18  18 100 N14       30.27S WCI   4
PARIS          CLOUDY    18  16  93 N12       30.24R WCI   5
LEXINGTON      CLOUDY    27  25  93 N15       30.14F WCI  15
SAVANNAH       CLOUDY    30  30 100 N10       30.11F WCI  21
$$

TNZ008-025-027-028-033-062-065-066-050600-
NORTH MIDDLE TENNESSEE

CITY           SKY/WX    TMP DP  RH WIND       PRES   REMARKS
NASHVILLE      FRZ DRZL  30  28  92 N14G21    30.15R FOG     WCI  19
CLARKSVILLE    LGT SNOW  21  19  92 N17       30.23S VSB 3/4 WCI   7
COOKEVILLE     CLOUDY    34  34 100 NE7       30.04R WCI  28
CROSSVILLE     LGT RAIN  35  32  88 NE15      30.01S WCI  25
$$

TNZ061-075-076-078-094-096-097-050600-
SOUTH MIDDLE TENNESSEE

CITY           SKY/WX    TMP DP  RH WIND       PRES   REMARKS
FAYETTEVILLE   CLOUDY    34  34 100 N10         N/A  WCI  26
TULLAHOMA      CLOUDY    34  34 100 N17       30.03R WCI  23
WINCHESTER     CLOUDY    37  36  93 N14       30.03R WCI  29
COLUMBIA       CLOUDY   N/A N/A N/A N9        30.11S
SHELBYVILLE    CLOUDY    34  34 100 N17       30.09R WCI  23
$$

TNZ017-018-042-046-047-050600-
NORTHEAST TENNESSEE

CITY           SKY/WX    TMP DP  RH WIND       PRES   REMARKS
TRI CITIES     LGT RAIN  43  41  93 N9        29.97R
ELIZABETHTON   LGT RAIN  46  43  87 W8        29.93R FOG
$$

TNZ012-013-036-069-073-074-050600-
CENTRAL EAST TENNESSEE

CITY           SKY/WX    TMP DP  RH WIND       PRES   REMARKS
KNOXVILLE      LGT RAIN  41  40  96 N9        30.00F
OAK RIDGE      LGT RAIN  42  39  89 VRB6      30.02R
GATLINBURG     CLOUDY    43  43 100 NW6       30.00S
$$

TNZ083-085-099-050600-
SOUTHEAST TENNESSEE

CITY           SKY/WX    TMP DP  RH WIND       PRES   REMARKS
CHATTANOOGA    CLOUDY    48  42  80 N8        29.98S
$$

SKY/WX REPORTED AS FAIR MEANS FEW OR NO CLOUDS BELOW
12 THOUSAND FEET.



USA.gov is the U.S. government's official web portal to all federal, state and local government web resources and services.